Weather History for Orange City, IA

Change the Weather History Date:

Monday, June 9, 2014

  Actual Average Record
Temperature  
Mean Temperature 60 °F -  
Max Temperature 66 °F 76 °F 91 °F (1999)
Min Temperature 55 °F 57 °F 46 °F (1948)
Degree Days  
Heating Degree Days 4    
Growing Degree Days 10 (Base 50)    
Moisture  
Dew Point 53 °F    
Average Humidity 75    
Maximum Humidity 88    
Minimum Humidity 59    
Precipitation  
Precipitation 0.34 in - - ()
Sea Level Pressure  
Sea Level Pressure 29.98 in    
Wind  
Wind Speed 8 mph (NE)    
Max Wind Speed 12 mph    
Max Gust Speed 20 mph    
Visibility 10 miles    
Events Rain    
Averages and records for this station are not official NWS values.
T = Trace of Precipitation, MM = Missing Value Source: NWS Daily Summary

Daily Weather History Graph

Daily Weather History Graph

Search for Another Location

Airport:

Trip Planner

Search our weather history database for the weather conditions in past years. The results will help you decide how hot, cold, wet, or windy it might be!

Date:

Astronomy

Jun. 09, 2014 Rise Set
Actual Time 5:45 AM CDT 9:02 PM CDT
Civil Twilight 5:10 AM CDT 9:37 PM CDT
Nautical Twilight 4:24 AM CDT 10:22 PM CDT
Astronomical Twilight 3:29 AM CDT 11:18 PM CDT
Moon 5:19 PM CDT (6/9) 3:18 AM CDT (6/9)
Length of Visible Light 16h 27m
Length of Day
15h 17m
Waxing Gibbous, 85% of the Moon is Illuminated
Jun 9
Waxing Gibbous
Jun 12
Full
Jun 19
Last Quarter
Jun 27
New
Jul 5
First Quarter

Hourly Weather History & Observations

Time (CDT) Temp. Dew Point Humidity Pressure Visibility Wind Dir Wind Speed Gust Speed Precip Events Conditions
12:15 AM 60.8 °F 50.0 °F 68% 29.99 in 10.0 mi ENE 10.4 mph - N/A   Overcast
12:35 AM 60.8 °F 48.2 °F 63% 29.99 in 10.0 mi ENE 6.9 mph - N/A   Overcast
12:55 AM 60.8 °F 48.2 °F 63% 29.98 in 10.0 mi ENE 9.2 mph 16.1 mph N/A   Overcast
1:15 AM 60.8 °F 48.2 °F 63% 29.98 in 10.0 mi ENE 9.2 mph 18.4 mph N/A   Overcast
1:35 AM 62.6 °F 48.2 °F 59% 29.97 in 10.0 mi ENE 10.4 mph 19.6 mph N/A   Overcast
1:55 AM 62.6 °F 48.2 °F 59% 29.98 in 10.0 mi ENE 11.5 mph 16.1 mph N/A   Overcast
2:15 AM 62.6 °F 48.2 °F 59% 29.98 in 10.0 mi ENE 9.2 mph - N/A   Overcast
2:35 AM 62.6 °F 48.2 °F 59% 29.98 in 10.0 mi ENE 10.4 mph - N/A   Overcast
2:55 AM 60.8 °F 51.8 °F 72% 29.98 in 10.0 mi NE 6.9 mph - N/A Rain Light Rain
3:15 AM 59.0 °F 50.0 °F 72% 29.98 in 10.0 mi NE 5.8 mph - N/A   Overcast
3:35 AM 59.0 °F 50.0 °F 72% 29.98 in 10.0 mi NNE 6.9 mph - N/A   Overcast
3:55 AM 57.2 °F 48.2 °F 72% 29.98 in 10.0 mi NNE 6.9 mph - N/A   Overcast
4:15 AM 57.2 °F 48.2 °F 72% 29.97 in 10.0 mi NE 8.1 mph - N/A   Overcast
4:35 AM 57.2 °F 48.2 °F 72% 29.97 in 10.0 mi ENE 6.9 mph - N/A   Overcast
4:55 AM 57.2 °F 50.0 °F 77% 29.98 in 10.0 mi ENE 8.1 mph - N/A   Overcast
5:15 AM 57.2 °F 51.8 °F 82% 29.97 in 10.0 mi ENE 6.9 mph - N/A   Overcast
5:35 AM 57.2 °F 51.8 °F 82% 29.98 in 10.0 mi NE 6.9 mph - N/A   Overcast
5:55 AM 57.2 °F 51.8 °F 82% 29.96 in 10.0 mi NE 6.9 mph - N/A   Overcast
6:15 AM 57.2 °F 51.8 °F 82% 29.98 in 10.0 mi NNE 8.1 mph - N/A   Overcast
6:35 AM 57.2 °F 51.8 °F 82% 29.98 in 10.0 mi NE 8.1 mph - N/A   Overcast
6:55 AM 59.0 °F 51.8 °F 77% 29.98 in 10.0 mi NE 8.1 mph - N/A   Overcast
7:15 AM 59.0 °F 51.8 °F 77% 29.98 in 10.0 mi ENE 6.9 mph - N/A   Overcast
7:35 AM 59.0 °F 51.8 °F 77% 29.98 in 10.0 mi NE 9.2 mph - N/A   Overcast
7:55 AM 59.0 °F 50.0 °F 72% 29.99 in 10.0 mi ENE 8.1 mph 17.3 mph N/A   Overcast
8:15 AM 59.0 °F 50.0 °F 72% 30.00 in 10.0 mi NE 6.9 mph - N/A   Overcast
8:35 AM 59.0 °F 50.0 °F 72% 30.01 in 10.0 mi NE 6.9 mph - N/A   Overcast
8:55 AM 59.0 °F 51.8 °F 77% 30.02 in 10.0 mi NE 10.4 mph 17.3 mph N/A   Overcast
9:15 AM 57.2 °F 53.6 °F 88% 30.02 in 7.0 mi NNE 9.2 mph 18.4 mph 0.01 in Rain Light Rain
9:35 AM 57.2 °F 53.6 °F 88% 30.03 in 10.0 mi NNE 10.4 mph - 0.05 in Rain Rain
9:55 AM 57.2 °F 53.6 °F 88% 30.03 in 7.0 mi NE 9.2 mph 18.4 mph 0.18 in Rain Rain
10:15 AM 55.4 °F 51.8 °F 88% 30.03 in 7.0 mi NE 10.4 mph 17.3 mph 0.06 in Rain Rain
10:35 AM 57.2 °F 53.6 °F 88% 30.03 in 10.0 mi ENE 11.5 mph 18.4 mph 0.11 in Rain Light Rain
10:55 AM 57.2 °F 53.6 °F 88% 30.03 in 7.0 mi ENE 9.2 mph 16.1 mph 0.12 in Rain Rain
11:35 AM 59.0 °F 55.4 °F 88% 30.02 in 10.0 mi ENE 11.5 mph 16.1 mph N/A   Light Drizzle
11:55 AM 59.0 °F 55.4 °F 88% 30.02 in 10.0 mi ENE 9.2 mph - N/A   Overcast
12:15 PM 60.8 °F 55.4 °F 82% 30.02 in 7.0 mi East 9.2 mph - 0.01 in   Drizzle
12:35 PM 60.8 °F 55.4 °F 82% 30.02 in 10.0 mi East 8.1 mph - 0.01 in Rain Light Rain
12:55 PM 60.8 °F 57.2 °F 88% 30.01 in 10.0 mi East 5.8 mph - 0.02 in   Drizzle
1:15 PM 60.8 °F 57.2 °F 88% 30.00 in 7.0 mi East 5.8 mph - 0.02 in Rain Rain
1:35 PM 60.8 °F 57.2 °F 88% 29.99 in 5.0 mi ENE 5.8 mph - 0.02 in Rain Light Rain
2:35 PM 62.6 °F 57.2 °F 82% 29.98 in 10.0 mi NE 4.6 mph - N/A   Overcast
2:55 PM 62.6 °F 57.2 °F 82% 29.98 in 10.0 mi NE 4.6 mph - N/A   Overcast
3:15 PM 64.4 °F 57.2 °F 77% 29.98 in 10.0 mi NNE 9.2 mph - N/A   Mostly Cloudy
3:35 PM 64.4 °F 57.2 °F 77% 29.98 in 10.0 mi NE 8.1 mph - N/A   Mostly Cloudy
4:15 PM 64.4 °F 57.2 °F 77% 29.98 in 10.0 mi NE 6.9 mph - N/A   Mostly Cloudy
4:35 PM 64.4 °F 57.2 °F 77% 29.98 in 10.0 mi NE 5.8 mph - N/A   Mostly Cloudy
4:55 PM 64.4 °F 57.2 °F 77% 29.98 in 10.0 mi NE 5.8 mph - N/A   Mostly Cloudy
5:15 PM 64.4 °F 55.4 °F 73% 29.97 in 10.0 mi NNE 5.8 mph - N/A   Mostly Cloudy
5:35 PM 64.4 °F 57.2 °F 77% 29.97 in 10.0 mi NE 6.9 mph - N/A   Scattered Clouds
5:55 PM 64.4 °F 55.4 °F 73% 29.96 in 10.0 mi NE 4.6 mph - N/A   Mostly Cloudy
6:15 PM 66.2 °F 55.4 °F 68% 29.96 in 10.0 mi NE 6.9 mph - N/A   Scattered Clouds
6:35 PM 66.2 °F 55.4 °F 68% 29.96 in 10.0 mi NE 4.6 mph - N/A   Scattered Clouds
6:55 PM 66.2 °F 55.4 °F 68% 29.96 in 10.0 mi NE 3.5 mph - N/A   Mostly Cloudy
7:15 PM 66.2 °F 55.4 °F 68% 29.95 in 10.0 mi NE 5.8 mph - N/A   Overcast
7:35 PM 66.2 °F 55.4 °F 68% 29.95 in 10.0 mi NE 5.8 mph - N/A   Mostly Cloudy
7:55 PM 66.2 °F 55.4 °F 68% 29.95 in 10.0 mi NE 4.6 mph - N/A   Mostly Cloudy
8:15 PM 66.2 °F 55.4 °F 68% 29.95 in 10.0 mi NE 4.6 mph - N/A   Overcast
8:35 PM 66.2 °F 57.2 °F 73% 29.96 in 10.0 mi NE 5.8 mph - N/A   Mostly Cloudy
8:55 PM 64.4 °F 57.2 °F 77% 29.96 in 10.0 mi NE 4.6 mph - N/A   Overcast
9:15 PM 64.4 °F 57.2 °F 77% 29.96 in 10.0 mi ENE 4.6 mph - N/A   Overcast
9:35 PM 64.4 °F 55.4 °F 73% 29.96 in 10.0 mi ENE 4.6 mph - N/A   Overcast
9:55 PM 64.4 °F 55.4 °F 73% 29.97 in 10.0 mi ENE 4.6 mph - N/A   Overcast
10:15 PM 64.4 °F 55.4 °F 73% 29.97 in 10.0 mi ENE 4.6 mph - N/A   Mostly Cloudy
10:35 PM 64.4 °F 55.4 °F 73% 29.97 in 10.0 mi ENE 4.6 mph - N/A   Mostly Cloudy
10:55 PM 64.4 °F 55.4 °F 73% 29.98 in 10.0 mi ENE 5.8 mph - N/A   Mostly Cloudy
11:15 PM 64.4 °F 55.4 °F 73% 29.98 in 10.0 mi ENE 4.6 mph - N/A   Mostly Cloudy
11:35 PM 64.4 °F 55.4 °F 73% 29.98 in 10.0 mi ENE 3.5 mph - N/A   Overcast
11:55 PM 62.6 °F 55.4 °F 77% 29.97 in 10.0 mi ENE 3.5 mph - N/A   Overcast